Regional Weather Roundup
Issued by NWS

Home | Current Version | Previous Version | Text Only | Print | Product List | Glossary Off
Versions: 1 2 3 4 5 6 7 8 9 10 11 12 13 14 15 16 17 18 19 20 21 22 23 24 25 26 27 28 29 30 31 32 33 34 35 36 37 38 39 40 41 42 43 44 45 46 47 48 49 50

000
ASUS45 KBOU 272307
RWRCO

WEATHER ROUNDUP FOR COLORADO
NATIONAL WEATHER SERVICE DENVER/BOULDER CO
500 PM MDT SUN JUL 27 2014

NOTE: "FAIR" INDICATES FEW OR NO CLOUDS BELOW 12000 FEET WITH NO
SIGNIFICANT WEATHER AND/OR OBSTRUCTIONS TO VISIBILITY.

COZ001>005-013-030-031-280000-
...NORTHWEST COLORADO...

CITY           SKY/WX    TMP DP  RH WIND       PRES   REMARKS
CRAIG          MOSUNNY   78  38  23 CALM      30.30F
HAYDEN         MOSUNNY   84  34  16 CALM      30.33F
MEEKER         MOSUNNY   88  34  14 NE8       30.31F
MOUNT WERNER   NOT AVBL
STEAMBOAT SPGS MOSUNNY   82  39  21 W7        30.35F
WALDEN         MOSUNNY   73  34  23 NW9       30.45F
$$

COZ006>008-011-280000-
...WEST CENTRAL VALLEYS...

CITY           SKY/WX    TMP DP  RH WIND       PRES   REMARKS
GRAND JUNCTION PTSUNNY   94  43  17 VRB6      30.11F
MONTROSE       LGT RAIN  76  50  40 E9        30.28S
EAGLE          MOSUNNY   84  39  20 NW14G23   30.32F
RIFLE          MOSUNNY   93  37  14 VRB3      30.20F
DELTA          CLOUDY    83  51  33 N18       30.24R
NUCLA          TSTM      70  55  60 E10       30.32R
$$

COZ017>023-064>068-280000-
...SOUTHWEST COLORADO...

CITY           SKY/WX    TMP DP  RH WIND       PRES   REMARKS
DURANGO        LGT RAIN  69  56  62 NE22G32   30.29R
CORTEZ         PTSUNNY   94  39  14 NW10      30.20F
PAGOSA SPRINGS TSTM      69  52  55 S10       30.48R
TELLURIDE      CLOUDY    70  46  43 W9        30.53F
WOLF CREEK PAS NOT AVBL
$$

COZ009-010-012-014-032>034-037-058>063-280000-
...CENTRAL COLORADO...

CITY           SKY/WX    TMP DP  RH WIND       PRES   REMARKS
ASPEN          PTSUNNY   80  36  20 VRB6G17   30.39S THUNDER
BUENA VISTA    CLOUDY    63  55  74 S6        30.51R
COPPER MTN     CLOUDY    61  34  36 W7        30.78R
BERTHOUD PASS  FAIR      46  32  57 SE13      30.85S THUNDER
COTTONWOOD PAS TSTM      57  46  67 W14       30.64F
GUNNISON       CLOUDY    73  43  33 SW15G24   30.46R
KREMMLING      MOSUNNY   88  23   9 N6        30.38F
LEADVILLE      LGT RAIN  58  50  75 SE9G16    30.61R
MONARCH PASS   CLOUDY    46  45  93 N12       30.91R
SALIDA         CLOUDY   N/A N/A N/A SE15G24   30.54R
SUNLIGHT       PTSUNNY   64  43  45 CALM      30.69F
WILKERSON PASS NOT AVBL
$$

COZ069>075-280000-
...SAN LUIS VALLEY/SANGRE DE CRISTO MOUNTAINS...

CITY           SKY/WX    TMP DP  RH WIND       PRES   REMARKS
ALAMOSA        LGT RAIN  69  57  65 SE3       30.43F
LA VETA PASS   CLOUDY    61  50  67 E16G22    30.66F THUNDER
SAGUACHE       CLOUDY    72  45  37 N13       30.47R
$$

COZ035-036-038>040-280000-
...NORTHERN COLORADO FRONT RANGE...

CITY           SKY/WX    TMP DP  RH WIND       PRES   REMARKS
DENVER INTL AP PTSUNNY   81  56  42 W10       30.31S
DMNS CITY PARK   N/A     76  59  56 NW7       30.32R
AURORA         PTSUNNY   78  59  51 NW9       30.34R
FRONT RANGE AP PTSUNNY   84  55  37 NW6       30.31
ERIE MUNI ARPT CLOUDY    83  58  42 CALM      30.30S
BOULDER MUN AP CLOUDY    81  55  41 CALM      30.31S
CENTENNIAL     CLOUDY    78  56  46 W13       30.35R
BROOMFIELD     PTSUNNY   81  57  44 W6        30.34F
FORT COLLINS   MOSUNNY   82  55  39 NE8       30.28F
LONGMONT       MOSUNNY   84  58  41 N6        30.31S
$$

COZ041-046-047-076>085-087-088-280000-
...PIKES PEAK/PALMER DIVIDE AND SOUTHERN FOOTHILLS...

CITY           SKY/WX    TMP DP  RH WIND       PRES   REMARKS
COLO. SPRINGS  CLOUDY    77  55  46 S12       30.39R
A. F. ACADEMY  CLOUDY    74  55  51 SE13      30.41R
ELLICOTT       CLOUDY    79  56  45 SE16      30.36F
FALCON         CLOUDY    74  54  49 SE9       30.44S
FORT CARSON    CLOUDY    79  56  46 S7        30.36R
LIMON          MOSUNNY   83  53  35 SE18      30.33S
MONUMENT HILL  CLOUDY    72  54  53 SE7       30.44R
TRINIDAD       CLOUDY    73  57  57 SW20G30   30.34R
$$

COZ042>045-048>051-090-091-280000-
...NORTHEAST COLORADO...

CITY           SKY/WX    TMP DP  RH WIND       PRES   REMARKS
GREELEY ARPT   MOSUNNY   84  55  37 E13G20    30.26F
AKRON          SUNNY     85  46  25 E14       30.29F
BURLINGTON     SUNNY     85  49  28 SE10G17   30.28F
WRAY             N/A     90  39  17 E7        30.25F
STERLING       SUNNY     90  52  27 SE7       30.25F
HOLYOKE        SUNNY     86  46  25 E5        30.28F
FORT MORGAN    SUNNY     87  48  26 E13       30.27F
$$

COZ086-089-092>099-280000-
...SOUTHEAST COLORADO...

CITY           SKY/WX    TMP DP  RH WIND       PRES   REMARKS
PUEBLO         CLOUDY    84  57  39 SE8       30.26F
LA JUNTA       MOSUNNY   87  63  44 E16       30.23F
LAMAR          MOSUNNY   85  63  47 E15G24    30.21F
SPRINGFIELD      N/A     82  63  52 E15       30.25S
$$


USA.gov is the U.S. government's official web portal to all federal, state and local government web resources and services.